This is the latest recevied weather packets stored in our database for station/object K0WXC-1. If no packets are shown the sender has not sent any weather packets the latest 10 day(s).
| Time | Temp. | Humidity | Pressure | Rain* | Wind** | Luminosity | Snow |
|---|---|---|---|---|---|---|---|
| 1777671028 | 17.22° C | 27% | 1002.3 hPa | 0 mm | 1.79 m/s, 267° | - | - |
| 1777670968 | 17.22° C | 27% | 1002.3 hPa | 0 mm | 1.79 m/s, 267° | - | - |
| 1777670908 | 17.22° C | 27% | 1002.3 hPa | 0 mm | 1.79 m/s, 267° | - | - |
| 1777670848 | 17.22° C | 27% | 1002.3 hPa | 0 mm | 1.79 m/s, 267° | - | - |
| 1777670788 | 17.22° C | 27% | 1002.3 hPa | 0 mm | 1.79 m/s, 267° | - | - |
| 1777670728 | 17.22° C | 28% | 1002.2 hPa | 0 mm | 4.02 m/s, 14° | - | - |
| 1777670668 | 17.22° C | 28% | 1002.2 hPa | 0 mm | 4.02 m/s, 14° | - | - |
| 1777670608 | 17.22° C | 28% | 1002.2 hPa | 0 mm | 4.02 m/s, 14° | - | - |
| 1777670548 | 17.22° C | 28% | 1002.2 hPa | 0 mm | 4.02 m/s, 14° | - | - |
| 1777670488 | 17.22° C | 28% | 1002.2 hPa | 0 mm | 4.02 m/s, 14° | - | - |
| 1777670428 | 16.11° C | 30% | 1002.4 hPa | 0 mm | 4.47 m/s, 312° | - | - |
| 1777670368 | 16.11° C | 30% | 1002.4 hPa | 0 mm | 4.47 m/s, 312° | - | - |
| 1777670308 | 16.11° C | 30% | 1002.4 hPa | 0 mm | 4.47 m/s, 312° | - | - |
| 1777670248 | 16.11° C | 30% | 1002.4 hPa | 0 mm | 4.47 m/s, 312° | - | - |
| 1777670128 | 16.11° C | 30% | 1002.4 hPa | 0 mm | 1.34 m/s, 182° | - | - |
| 1777670068 | 16.11° C | 30% | 1002.4 hPa | 0 mm | 1.34 m/s, 182° | - | - |
| 1777670008 | 16.11° C | 30% | 1002.4 hPa | 0 mm | 1.34 m/s, 182° | - | - |
| 1777669948 | 16.11° C | 30% | 1002.4 hPa | 0 mm | 1.34 m/s, 182° | - | - |
| 1777669888 | 16.11° C | 30% | 1002.4 hPa | 0 mm | 1.34 m/s, 182° | - | - |
| 1777669828 | 16.67° C | 31% | 1002.5 hPa | 0 mm | 3.13 m/s, 315° | - | - |
| 1777669768 | 16.67° C | 31% | 1002.5 hPa | 0 mm | 3.13 m/s, 315° | - | - |
| 1777669708 | 16.67° C | 31% | 1002.5 hPa | 0 mm | 3.13 m/s, 315° | - | - |
| 1777669648 | 16.67° C | 31% | 1002.5 hPa | 0 mm | 3.13 m/s, 315° | - | - |
| 1777669588 | 16.67° C | 31% | 1002.5 hPa | 0 mm | 3.13 m/s, 315° | - | - |
| 1777669528 | 16.11° C | 32% | 1002.5 hPa | 0 mm | 1.79 m/s, 241° | - | - |
* Rain latest hour (hover to see other rain measurements)
** Current wind speed in m/s (hover to see current wind gust speed)